Weather History for Sand Island, Henderson Field, HI

Change the Weather History Date:

Wednesday, March 5, 2014

  Actual Average Record
Temperature  
Mean Temperature 93 °F -  
Max Temperature 126 °F - - ()
Min Temperature 60 °F - - ()
Cooling Degree Days 28    
Growing Degree Days 43 (Base 50)    
Moisture  
Dew Point 62 °F    
Average Humidity 89    
Maximum Humidity 100    
Minimum Humidity 63    
Precipitation  
Precipitation 0.02 in - - ()
Sea Level Pressure  
Sea Level Pressure 30.43 in    
Wind  
Wind Speed 1 mph (WNW)    
Max Wind Speed 16 mph    
Max Gust Speed 20 mph    
Visibility 8 miles    
Events Rain    
T = Trace of Precipitation, MM = Missing Value Source: NWS Daily Summary

Daily Weather History Graph

Daily Weather History Graph

Search for Another Location

Airport:

Trip Planner

Search our weather history database for the weather conditions in past years. The results will help you decide how hot, cold, wet, or windy it might be!

Date:

Astronomy

Mar. 05, 2014 Rise Set
Actual Time 6:09 PM GMT 5:52 AM GMT
Civil Twilight 5:46 PM GMT 6:15 AM GMT
Nautical Twilight 5:18 PM GMT 6:43 AM GMT
Astronomical Twilight 4:51 PM GMT 7:10 AM GMT
Moon 9:11 PM GMT (3/5) 9:49 AM GMT (3/5)
Length of Visible Light 12h 29m
Length of Day
11h 42m
Waxing Crescent, 21% of the Moon is Illuminated
Mar 5
Waxing Crescent
Mar 8
First Quarter
Mar 16
Full
Mar 24
Last Quarter
Mar 30
New

Hourly Weather History & Observations

Time (GMT) Temp. Dew Point Humidity Pressure Visibility Wind Dir Wind Speed Gust Speed Precip Events Conditions
12:56 AM 68.9 °F 55.9 °F 63% 30.94 in 10.0 mi Calm Calm - N/A   Clear
1:56 AM 68.0 °F 56.8 °F 67% 30.92 in 10.0 mi Calm Calm - N/A   Clear
2:56 AM 68.0 °F 56.8 °F 67% 30.89 in 10.0 mi Calm Calm - N/A   Clear
3:56 AM 66.9 °F 57.9 °F 73% 30.87 in 10.0 mi Calm Calm - N/A   Clear
4:56 AM 65.8 °F 57.9 °F 76% 30.89 in 10.0 mi Calm Calm - N/A   Clear
5:56 AM 65.8 °F 59.0 °F 79% 30.88 in 10.0 mi Calm Calm - N/A   Clear
6:56 AM 65.8 °F 59.9 °F 81% 30.90 in 10.0 mi Calm Calm - N/A   Partly Cloudy
7:56 AM 65.8 °F 59.9 °F 81% 30.91 in 10.0 mi Calm Calm - N/A   Unknown
8:56 AM 64.4 °F 60.8 °F 88% 29.99 in 10.0 mi Calm Calm - N/A   Unknown
9:56 AM 65.8 °F 59.9 °F 81% 30.90 in 10.0 mi Calm Calm - N/A   Unknown
10:56 AM 65.8 °F 59.0 °F 79% 30.88 in 10.0 mi Calm Calm - N/A   Unknown
11:56 AM 66.2 °F 60.8 °F 83% 29.96 in 10.0 mi Calm Calm - N/A   Unknown
12:56 PM 65.8 °F 59.9 °F 81% 30.87 in 10.0 mi Calm Calm - N/A   Unknown
1:56 PM 65.8 °F 59.9 °F 81% 30.85 in 10.0 mi Calm Calm - N/A   Unknown
2:56 PM 66.2 °F 60.8 °F 83% 29.91 in 10.0 mi Calm Calm - N/A   Unknown
3:56 PM 65.8 °F 59.9 °F 81% 30.83 in 10.0 mi Calm Calm - 0.00 in   Unknown
4:56 PM 65.8 °F 61.0 °F 84% 30.83 in 10.0 mi Calm Calm - N/A   Unknown
5:30 PM 64.4 °F 60.8 °F 88% 29.93 in 1.8 mi West 16.1 mph - N/A   Mist
5:47 PM 78.8 °F 78.8 °F 100% 29.92 in 2.0 mi West 10.4 mph - 0.00 in Rain Light Rain
5:56 PM 69.8 °F 68.0 °F 94% 29.93 in - West 9.2 mph - N/A Rain Light Rain
6:56 PM 126.0 °F - N/A% 30.82 in - Calm Calm - 0.00 in   Unknown
7:56 PM 64.9 °F 64.9 °F 100% 30.87 in 9.0 mi WNW 8.1 mph 17.3 mph N/A   Mostly Cloudy
8:11 PM 64.4 °F 64.4 °F 100% 29.95 in 7.0 mi Calm Calm - N/A   Scattered Clouds
8:56 PM 64.9 °F 64.9 °F 100% 30.88 in 10.0 mi WNW 5.8 mph 19.6 mph N/A   Partly Cloudy
9:29 PM 62.6 °F 62.6 °F 100% 29.98 in 10.0 mi Calm Calm - N/A   Scattered Clouds
9:31 PM 62.6 °F 62.6 °F 100% 29.98 in 10.0 mi Calm Calm - N/A   Mostly Cloudy
9:56 PM 61.0 °F 61.0 °F 100% 30.90 in 0.8 mi Calm Calm - 0.01 in   Overcast
10:00 PM 60.8 °F 60.8 °F 100% 29.99 in 1.2 mi Calm Calm - 0.00 in Rain Light Rain
10:02 PM 60.8 °F 60.8 °F 100% 29.99 in 2.0 mi Calm Calm - 0.00 in Rain Light Rain
10:08 PM 60.8 °F 60.8 °F 100% 29.98 in 1.2 mi Calm Calm - 0.01 in Rain Light Rain
10:15 PM 60.8 °F 60.8 °F 100% 29.98 in 1.0 mi Calm Calm - 0.01 in Rain Light Rain
10:17 PM 60.8 °F 60.8 °F 100% 29.98 in 1.5 mi Calm Calm - 0.01 in Rain Light Rain
10:20 PM 60.8 °F 60.8 °F 100% 29.98 in 4.0 mi Calm Calm - 0.01 in Rain Light Rain
10:35 PM 60.8 °F 60.8 °F 100% 29.98 in 10.0 mi Calm Calm - 0.01 in   Mostly Cloudy
10:56 PM 61.0 °F 61.0 °F 100% 30.89 in 10.0 mi Calm Calm - 0.01 in   Overcast
11:35 PM 62.6 °F 62.6 °F 100% 29.96 in 10.0 mi Calm Calm - N/A   Mostly Cloudy
11:56 PM 75.2 °F 75.2 °F 100% 29.94 in 10.0 mi Calm Calm - N/A   Mostly Cloudy